N171PC CYQT-KDPA

Flight info

Callsign N171PC
Flight time 1h 1m
Altitude 36000
Route CMX GRB BAE DPA
Aircraft C750/M-VGDW/C

Departure

Time 2026-04-21 00:54
Airport Thunder Bay International Airport (CYQT)

Arrival

Time 2026-04-21 01:55
Airport Dupage Airport (KDPA)
Time Latitude Longitude Altitude Speed Heading
2026-04-21 00:37 48.37193 -89.31526 650 ft 0 kts 348°
2026-04-21 00:48 48.37185 -89.31523 651 ft 2 kts
2026-04-21 00:49 48.37170 -89.31531 650 ft 2 kts 62°
2026-04-21 00:49 48.37169 -89.31535 650 ft 0 kts 53°
2026-04-21 00:50 48.37171 -89.31530 650 ft 2 kts 56°
2026-04-21 00:51 48.37177 -89.31514 651 ft 2 kts 63°
2026-04-21 00:51 48.37194 -89.31488 650 ft 7 kts 39°
2026-04-21 00:51 48.37244 -89.31406 649 ft 11 kts 41°
2026-04-21 00:51 48.37300 -89.31341 649 ft 9 kts 38°
2026-04-21 00:52 48.37348 -89.31284 649 ft 8 kts 39°
2026-04-21 00:52 48.37390 -89.31234 650 ft 7 kts 37°
2026-04-21 00:52 48.37426 -89.31198 648 ft 6 kts 18°
2026-04-21 00:52 48.37469 -89.31194 649 ft 7 kts 360°
2026-04-21 00:53 48.37515 -89.31217 649 ft 7 kts 301°
2026-04-21 00:53 48.37515 -89.31247 649 ft 0 kts 251°
2026-04-21 00:53 48.37473 -89.31430 649 ft 56 kts 250°
2026-04-21 00:53 48.37243 -89.32410 658 ft 133 kts 250°
2026-04-21 00:54 48.36947 -89.33784 997 ft 140 kts 250°
2026-04-21 00:54 48.36606 -89.35230 1368 ft 150 kts 245°
2026-04-21 00:54 48.36235 -89.36645 1939 ft 147 kts 255°
2026-04-21 00:54 48.36580 -89.38315 2023 ft 196 kts 302°
2026-04-21 00:55 48.37866 -89.39307 2427 ft 228 kts 346°
2026-04-21 00:55 48.39520 -89.38985 2798 ft 253 kts 16°
2026-04-21 00:55 48.41100 -89.37826 3539 ft 254 kts 24°
2026-04-21 00:55 48.42674 -89.36480 4054 ft 267 kts 24°
2026-04-21 00:56 48.44359 -89.35151 4376 ft 284 kts 21°
2026-04-21 00:56 48.46072 -89.33573 5235 ft 290 kts 28°
2026-04-21 00:56 48.47631 -89.31693 6337 ft 284 kts 30°
2026-04-21 00:56 48.49247 -89.29928 6892 ft 293 kts 22°
2026-04-21 00:57 48.51024 -89.28444 7768 ft 290 kts 19°
2026-04-21 00:57 48.52794 -89.26947 8686 ft 296 kts 22°
2026-04-21 00:57 48.54541 -89.25238 9528 ft 302 kts 25°
2026-04-21 00:57 48.56292 -89.23467 10257 ft 305 kts 24°
2026-04-21 00:58 48.58117 -89.21719 10449 ft 328 kts 23°
2026-04-21 00:58 48.60135 -89.19830 10490 ft 354 kts 24°
2026-04-21 00:58 48.62259 -89.17768 10879 ft 366 kts 26°
2026-04-21 00:58 48.64383 -89.15663 11649 ft 365 kts 25°
2026-04-21 00:59 48.66529 -89.13589 12270 ft 368 kts 24°
2026-04-21 00:59 48.68697 -89.11515 12926 ft 370 kts 25°
2026-04-21 00:59 48.70765 -89.09103 13459 ft 386 kts 38°
2026-04-21 00:59 48.72410 -89.05818 14081 ft 398 kts 53°
2026-04-21 01:00 48.73479 -89.01893 14621 ft 411 kts 70°
2026-04-21 01:00 48.73835 -88.97606 15151 ft 421 kts 87°
2026-04-21 01:00 48.73408 -88.93194 15666 ft 429 kts 104°
2026-04-21 01:00 48.72181 -88.89069 16181 ft 432 kts 123°
2026-04-21 01:01 48.70268 -88.85563 16685 ft 433 kts 138°
2026-04-21 01:01 48.67924 -88.82724 17197 ft 432 kts 151°
2026-04-21 01:01 48.65252 -88.80670 17706 ft 430 kts 164°
2026-04-21 01:01 48.62388 -88.79480 18224 ft 426 kts 177°
2026-04-21 01:02 48.59456 -88.79101 18675 ft 424 kts 184°
2026-04-21 01:02 48.56536 -88.78761 19153 ft 429 kts 182°
2026-04-21 01:02 48.53551 -88.78326 19676 ft 434 kts 181°
2026-04-21 01:02 48.50538 -88.77794 20197 ft 438 kts 180°
2026-04-21 01:03 48.47498 -88.77281 20693 ft 441 kts 181°
2026-04-21 01:03 48.44435 -88.76824 21203 ft 445 kts 182°
2026-04-21 01:03 48.41332 -88.76357 21694 ft 450 kts 181°
2026-04-21 01:03 48.38209 -88.75848 22187 ft 454 kts 181°
2026-04-21 01:04 48.35059 -88.75333 22669 ft 458 kts 181°
2026-04-21 01:04 48.31919 -88.74844 23150 ft 461 kts 181°
2026-04-21 01:04 48.28713 -88.74350 23627 ft 465 kts 181°
2026-04-21 01:04 48.25482 -88.73839 24062 ft 468 kts 181°
2026-04-21 01:05 48.22240 -88.73320 24493 ft 471 kts 181°
2026-04-21 01:05 48.18968 -88.72807 24919 ft 473 kts 181°
2026-04-21 01:05 48.15678 -88.72297 25338 ft 476 kts 181°
2026-04-21 01:05 48.12372 -88.71779 25745 ft 480 kts 181°
2026-04-21 01:06 48.09043 -88.71254 26177 ft 482 kts 181°
2026-04-21 01:06 48.05694 -88.70731 26597 ft 486 kts 181°
2026-04-21 01:06 48.02369 -88.70214 27021 ft 488 kts 181°
2026-04-21 01:06 47.98979 -88.69686 27447 ft 491 kts 181°
2026-04-21 01:07 47.95565 -88.69154 27860 ft 495 kts 181°
2026-04-21 01:07 47.92134 -88.68620 28291 ft 498 kts 181°
2026-04-21 01:07 47.88675 -88.68084 28707 ft 501 kts 181°
2026-04-21 01:07 47.85198 -88.67544 29124 ft 504 kts 181°
2026-04-21 01:08 47.81699 -88.67002 29545 ft 507 kts 181°
2026-04-21 01:08 47.78177 -88.66458 29950 ft 510 kts 181°
2026-04-21 01:08 47.74635 -88.65911 30306 ft 513 kts 181°
2026-04-21 01:08 47.71123 -88.65369 30672 ft 515 kts 180°
2026-04-21 01:09 47.67552 -88.64819 31050 ft 517 kts 180°
2026-04-21 01:09 47.63984 -88.64267 31624 ft 514 kts 180°
2026-04-21 01:09 47.60438 -88.63722 32133 ft 513 kts 180°
2026-04-21 01:09 47.56891 -88.63181 32640 ft 512 kts 181°
2026-04-21 01:10 47.53347 -88.62640 33163 ft 511 kts 180°
2026-04-21 01:10 47.49813 -88.62098 33668 ft 510 kts 180°
2026-04-21 01:10 47.46292 -88.61559 34144 ft 509 kts 180°
2026-04-21 01:10 47.42812 -88.61029 34534 ft 509 kts 180°
2026-04-21 01:11 47.39287 -88.60492 34953 ft 509 kts 180°
2026-04-21 01:11 47.35764 -88.59956 35363 ft 509 kts 180°
2026-04-21 01:11 47.32246 -88.59421 35784 ft 508 kts 180°
2026-04-21 01:11 47.28712 -88.58888 35942 ft 515 kts 180°
2026-04-21 01:12 47.21443 -88.57793 35939 ft 534 kts 179°
2026-04-21 01:12 47.13981 -88.56661 35942 ft 551 kts 179°
2026-04-21 01:13 47.06278 -88.55503 35950 ft 562 kts 179°
2026-04-21 01:13 46.98448 -88.54324 35970 ft 569 kts 179°
2026-04-21 01:14 46.90553 -88.53144 36001 ft 572 kts 179°
2026-04-21 01:14 46.82696 -88.51970 36019 ft 572 kts 179°
2026-04-21 01:15 46.74782 -88.50793 36024 ft 571 kts 179°
2026-04-21 01:15 46.66867 -88.49619 36031 ft 572 kts 179°
2026-04-21 01:16 46.58953 -88.48448 36034 ft 572 kts 179°
2026-04-21 01:16 46.51035 -88.47281 36041 ft 572 kts 179°
2026-04-21 01:17 46.43172 -88.46124 36053 ft 572 kts 179°
2026-04-21 01:17 46.35257 -88.44965 36071 ft 572 kts 179°
2026-04-21 01:18 46.27344 -88.43807 36070 ft 571 kts 179°
2026-04-21 01:18 46.19440 -88.42656 36074 ft 571 kts 179°
2026-04-21 01:19 46.11583 -88.41514 36078 ft 571 kts 179°
2026-04-21 01:19 46.03682 -88.40368 36078 ft 571 kts 179°
2026-04-21 01:20 45.95778 -88.39226 36058 ft 570 kts 179°
2026-04-21 01:20 45.87883 -88.38089 36046 ft 570 kts 179°
2026-04-21 01:21 45.80033 -88.36961 36047 ft 570 kts 179°
2026-04-21 01:21 45.72145 -88.35831 36055 ft 570 kts 179°
2026-04-21 01:22 45.64255 -88.34704 36069 ft 570 kts 179°
2026-04-21 01:22 45.56369 -88.33581 36094 ft 569 kts 179°
2026-04-21 01:23 45.48544 -88.32468 36119 ft 569 kts 179°
2026-04-21 01:23 45.40664 -88.31353 36120 ft 569 kts 179°
2026-04-21 01:24 45.32787 -88.30239 36134 ft 569 kts 179°
2026-04-21 01:24 45.24916 -88.29131 36129 ft 569 kts 179°
2026-04-21 01:25 45.17087 -88.28031 36138 ft 569 kts 178°
2026-04-21 01:25 45.09208 -88.26927 36157 ft 569 kts 178°
2026-04-21 01:26 45.01434 -88.25841 36152 ft 569 kts 178°
2026-04-21 01:26 44.93554 -88.24743 36137 ft 569 kts 178°
2026-04-21 01:27 44.85676 -88.23648 36143 ft 569 kts 178°
2026-04-21 01:27 44.77846 -88.22564 36128 ft 569 kts 178°
2026-04-21 01:28 44.69963 -88.21475 36152 ft 569 kts 179°
2026-04-21 01:28 44.62076 -88.20386 36133 ft 570 kts 179°
2026-04-21 01:29 44.54180 -88.19524 36114 ft 566 kts 185°
2026-04-21 01:29 44.46440 -88.20082 36132 ft 558 kts 189°
2026-04-21 01:30 44.38638 -88.20560 36134 ft 563 kts 186°
2026-04-21 01:30 44.30808 -88.21041 36146 ft 563 kts 188°
2026-04-21 01:31 44.22969 -88.21565 36150 ft 565 kts 187°
2026-04-21 01:31 44.15117 -88.22026 36158 ft 564 kts 188°
2026-04-21 01:32 44.07317 -88.22548 36161 ft 565 kts 187°
2026-04-21 01:32 43.99457 -88.23013 36161 ft 565 kts 187°
2026-04-21 01:33 43.91595 -88.23525 36171 ft 566 kts 187°
2026-04-21 01:33 43.83723 -88.24000 36159 ft 566 kts 187°
2026-04-21 01:34 43.79890 -88.24238 35706 ft 551 kts 188°
2026-04-21 01:34 43.76105 -88.24472 34968 ft 537 kts 188°
2026-04-21 01:34 43.72414 -88.24702 34270 ft 524 kts 188°
2026-04-21 01:34 43.68814 -88.24927 33550 ft 512 kts 188°
2026-04-21 01:35 43.65289 -88.25144 32889 ft 503 kts 188°
2026-04-21 01:35 43.61806 -88.25363 32247 ft 501 kts 188°
2026-04-21 01:35 43.58315 -88.25585 31592 ft 505 kts 188°
2026-04-21 01:35 43.54779 -88.25805 30922 ft 510 kts 188°
2026-04-21 01:36 43.51222 -88.26019 30241 ft 512 kts 188°
2026-04-21 01:36 43.47724 -88.26227 29526 ft 507 kts 188°
2026-04-21 01:36 43.44228 -88.26441 28866 ft 500 kts 188°
2026-04-21 01:36 43.40768 -88.26658 28203 ft 494 kts 188°
2026-04-21 01:37 43.37360 -88.26868 27558 ft 489 kts 188°
2026-04-21 01:37 43.33976 -88.27073 26917 ft 484 kts 188°
2026-04-21 01:37 43.30624 -88.27277 26283 ft 480 kts 188°
2026-04-21 01:37 43.27304 -88.27481 25659 ft 475 kts 188°
2026-04-21 01:38 43.24017 -88.27682 25034 ft 470 kts 188°
2026-04-21 01:38 43.20813 -88.27877 24445 ft 466 kts 188°
2026-04-21 01:38 43.17593 -88.28073 23836 ft 461 kts 188°
2026-04-21 01:38 43.14402 -88.28267 23173 ft 456 kts 188°
2026-04-21 01:39 43.11250 -88.28394 22559 ft 453 kts 185°
2026-04-21 01:39 43.08104 -88.28107 21990 ft 452 kts 181°
2026-04-21 01:39 43.04971 -88.27750 21392 ft 451 kts 180°
2026-04-21 01:39 43.01853 -88.27426 20798 ft 448 kts 181°
2026-04-21 01:40 42.98760 -88.27143 20208 ft 444 kts 181°
2026-04-21 01:40 42.95728 -88.26852 19580 ft 441 kts 181°
2026-04-21 01:40 42.92670 -88.26535 18845 ft 438 kts 181°
2026-04-21 01:40 42.89660 -88.26223 18244 ft 431 kts 181°
2026-04-21 01:41 42.86690 -88.25933 17672 ft 425 kts 181°
2026-04-21 01:41 42.83760 -88.25651 17103 ft 420 kts 181°
2026-04-21 01:41 42.80858 -88.25361 16548 ft 416 kts 181°
2026-04-21 01:41 42.77987 -88.25072 15996 ft 412 kts 181°
2026-04-21 01:42 42.75137 -88.24789 15458 ft 408 kts 181°
2026-04-21 01:42 42.72323 -88.24513 14920 ft 403 kts 181°
2026-04-21 01:42 42.69576 -88.24241 14397 ft 399 kts 181°
2026-04-21 01:42 42.66824 -88.23968 13859 ft 394 kts 181°
2026-04-21 01:43 42.64106 -88.23699 13317 ft 389 kts 181°
2026-04-21 01:43 42.61424 -88.23435 12803 ft 385 kts 181°
2026-04-21 01:43 42.58765 -88.23174 12304 ft 381 kts 181°
2026-04-21 01:43 42.56137 -88.22914 11810 ft 377 kts 181°
2026-04-21 01:44 42.53538 -88.22658 11319 ft 370 kts 181°
2026-04-21 01:44 42.51022 -88.22406 10840 ft 356 kts 181°
2026-04-21 01:44 42.48596 -88.22166 10374 ft 343 kts 182°
2026-04-21 01:44 42.46285 -88.21942 9921 ft 332 kts 182°
2026-04-21 01:45 42.44020 -88.21722 9481 ft 321 kts 181°
2026-04-21 01:45 42.41827 -88.21506 9066 ft 311 kts 181°
2026-04-21 01:45 42.39701 -88.21298 8663 ft 302 kts 181°
2026-04-21 01:45 42.37630 -88.21096 8269 ft 295 kts 181°
2026-04-21 01:46 42.35601 -88.20899 7884 ft 290 kts 181°
2026-04-21 01:46 42.33593 -88.20704 7506 ft 288 kts 180°
2026-04-21 01:46 42.31602 -88.20510 7132 ft 286 kts 180°
2026-04-21 01:46 42.29652 -88.20319 6760 ft 284 kts 179°
2026-04-21 01:47 42.27691 -88.20127 6378 ft 281 kts 179°
2026-04-21 01:47 42.25756 -88.19938 6001 ft 277 kts 179°
2026-04-21 01:47 42.23850 -88.19753 5636 ft 273 kts 179°
2026-04-21 01:47 42.21976 -88.19572 5276 ft 267 kts 179°
2026-04-21 01:48 42.20149 -88.19393 4919 ft 260 kts 179°
2026-04-21 01:48 42.18373 -88.19217 4566 ft 252 kts 179°
2026-04-21 01:48 42.16654 -88.19049 4235 ft 244 kts 179°
2026-04-21 01:48 42.14985 -88.18889 3910 ft 237 kts 178°
2026-04-21 01:49 42.13388 -88.18734 3600 ft 230 kts 178°
2026-04-21 01:49 42.11814 -88.18582 3292 ft 224 kts 178°
2026-04-21 01:49 42.10285 -88.18458 2994 ft 215 kts 181°
2026-04-21 01:49 42.08898 -88.18824 3003 ft 193 kts 195°
2026-04-21 01:50 42.07638 -88.19259 2997 ft 181 kts 194°
2026-04-21 01:50 42.06449 -88.19647 2995 ft 171 kts 194°
2026-04-21 01:50 42.05320 -88.20024 2991 ft 161 kts 194°
2026-04-21 01:50 42.04307 -88.20363 2968 ft 140 kts 194°
2026-04-21 01:51 42.03411 -88.20664 2979 ft 129 kts 194°
2026-04-21 01:51 42.02569 -88.20946 2985 ft 125 kts 194°
2026-04-21 01:51 42.01742 -88.21224 2991 ft 120 kts 194°
2026-04-21 01:51 42.00952 -88.21491 2952 ft 115 kts 195°
2026-04-21 01:52 42.00168 -88.21754 2756 ft 117 kts 194°
2026-04-21 01:52 41.98598 -88.22302 2296 ft 114 kts 193°
2026-04-21 01:52 41.97827 -88.22566 2062 ft 114 kts 193°
2026-04-21 01:53 41.97056 -88.22828 1849 ft 113 kts 193°
2026-04-21 01:53 41.96299 -88.23066 1763 ft 112 kts 190°
2026-04-21 01:53 41.95544 -88.23308 1640 ft 115 kts 192°
2026-04-21 01:53 41.94741 -88.23564 1446 ft 121 kts 192°
2026-04-21 01:54 41.93908 -88.23836 1271 ft 125 kts 193°
2026-04-21 01:54 41.93070 -88.24139 1118 ft 125 kts 193°
2026-04-21 01:54 41.92227 -88.24418 984 ft 125 kts 194°
2026-04-21 01:54 41.91383 -88.24697 784 ft 124 kts 193°
2026-04-21 01:55 41.90639 -88.24942 762 ft 89 kts 194°
2026-04-21 01:55 41.90326 -88.25050 754 ft 21 kts 194°
2026-04-21 01:55 41.90287 -88.25127 757 ft 8 kts 279°
2026-04-21 01:55 41.90294 -88.25176 754 ft 3 kts 285°
2026-04-21 01:56 41.90301 -88.25212 757 ft 4 kts 285°
2026-04-21 01:56 41.90313 -88.25273 758 ft 13 kts 284°
2026-04-21 01:56 41.90337 -88.25402 755 ft 14 kts 284°
2026-04-21 01:56 41.90363 -88.25513 759 ft 11 kts 302°
2026-04-21 01:57 41.90420 -88.25550 759 ft 8 kts
2026-04-21 01:57 41.90463 -88.25494 759 ft 10 kts 30°
2026-04-21 01:57 41.90536 -88.25491 760 ft 12 kts
2026-04-21 01:57 41.90608 -88.25465 759 ft 3 kts 41°
2026-04-21 01:58 41.90609 -88.25465 759 ft 0 kts 40°